Weather in zheleznodorozhnaya stantsiya Abrosovo

Russia / Novgorod Oblast     58°42′47″N   35°26′00″E
temp.,
°C
wind,
m/s
gust,
m/s
humid.,
%
clouds,
%
prec.,
mm/h
press.,
hPa
HPBL,
m
7 march, sun
sun700:00−6ssw61491100 0.3 1001956
03:00−5ssw61392100 1.3 9951009
06:00−3ssw51295100 1.9 988823
09:00−2wsw61195100 4.6 9861031
12:00−5w71364100 0.6 9861958
15:00−5w6115984 0.9 9872269
18:00−8wsw4117790 0.1 988410
21:00−8wsw4109479 0.5 988844
8 march, mon
mon800:00−7w3895100 2.6 989551
03:00−10n51094100 3.0 992516
06:00−13n41194100 0.1 995355
09:00−11n499397 0.1 999519
12:00−9n4787100 0.2 1003742
15:00−9n4786100 0.3 1006849
18:00−12n4891100 0.1 1009522
21:00−17n399693 0.1 1012266
9 march, tue
tue900:00−20nnw379963 0.0 1014148
03:00−23nnw259973 0.0 101692
06:00−24nnw239938 0.0 101782
09:00−23n259645 0.0 1019219
12:00−18n238376 0.0 1020453
15:00−15n248380 0.0 1021585
18:00−18n229247 0.0 102220
21:00−22nne119724 0.0 102420
10 march, wed
wed1000:00−23n11960 0.0 102520
03:00−24n12960 0.0 102620
06:00−26n11930 0.0 102619
09:00−23ne11860 0.0 102883
12:00−15ne11770 0.0 1028296
15:00−12ese11740 0.0 1027371
18:00−16ssw118462 0.0 102620
21:00−18sw128776 0.0 102720
11 march, thu
thu1100:00−19sw1285100 0.0 102720
03:00−20s128380 0.0 102720
06:00−21sse22847 0.0 102520
09:00−18se35814 0.0 1024166
12:00−11se410720 0.0 1022450
15:00−8sse5107832 0.0 1019651
18:00−9sse5119199 0.1 1016582
21:00−9sse51593100 0.1 1013543